Starlink 31994

operational
NORAD ID: 60588 Int'l Des: 2024-150 Owner: SPXS Country: US Constellation: starlink
LEOCIRCULAR

Starlink 31994について

説明を読み込み中...

リアルタイム位置

3D地球を読み込み中...

次回通過

高度履歴

Altitude vs Time

uPlot chart will show altitude changes over time

軌道要素

1 60588U 24150F 25306.38442836 .00001060 00000-0 47932-4 0 9999
2 60588 53.1599 178.1112 0001586 85.4111 274.7071 15.30190475 68470
Epoch: Nov 2, 2025 • Age: 40 hours

現在のステータス

高度 493.3 km
速度 7.62 km/s
衛星直下点 -49.38°S, 15.55°W
打ち上げ日 Aug 20, 2024
運用期間 1.2 years
タイプ internet

技術仕様

分類 Payload
質量 730.00 kg
乾燥質量 700.00 kg
総質量 730.00 kg
長さ 0.30 m
直径 4.10 m
スパン 29.00 m
形状 Box + pan
製造者 SPXS
バスタイプ Starlink V2M
フェーズステータス In Orbit
所有者/国 SPXS/US

大規模コンステレーション

Loading constellations...